TimeAEST,TemperatureF,Dew PointF,Humidity,Sea Level PressureIn,VisibilityMPH,Wind Direction,Wind SpeedMPH,Gust SpeedMPH,PrecipitationIn,Events,Conditions,WindDirDegrees,DateUTC
12:00 AM,77,76,95,29.63,,WNW,4.6,,,,Overcast,290,2013-03-03 14:00:00
12:00 AM,77.0,75.2,94,29.62,6.2,WNW,4.6,-,N/A,,Mostly Cloudy,290,2013-03-03 14:00:00
12:30 AM,77.0,75.2,94,29.59,6.2,WSW,5.8,-,N/A,,Mostly Cloudy,240,2013-03-03 14:30:00
1:00 AM,77,76,97,29.58,,North,3.5,,,,,0,2013-03-03 15:00:00
1:00 AM,77.0,77.0,100,29.56,6.2,North,3.5,-,N/A,,Mostly Cloudy,360,2013-03-03 15:00:00
1:30 AM,77.0,77.0,100,29.56,6.2,NW,3.5,-,N/A,,Mostly Cloudy,320,2013-03-03 15:30:00
2:00 AM,77.0,75.2,94,29.56,6.2,WSW,4.6,-,N/A,,Mostly Cloudy,250,2013-03-03 16:00:00
2:30 AM,77.0,75.2,94,29.53,6.2,WSW,5.8,-,N/A,,Mostly Cloudy,250,2013-03-03 16:30:00
3:00 AM,77,74,89,29.55,,West,5.8,,,,,270,2013-03-03 17:00:00
3:00 AM,77.0,75.2,94,29.53,6.2,West,5.8,-,N/A,,Mostly Cloudy,270,2013-03-03 17:00:00
3:30 AM,77.0,75.2,94,29.53,6.2,ESE,1.2,-,N/A,,Mostly Cloudy,110,2013-03-03 17:30:00
4:00 AM,77,75,93,29.56,,West,2.3,,,,,260,2013-03-03 18:00:00
4:00 AM,77.0,75.2,94,29.53,6.2,West,2.3,-,N/A,,Mostly Cloudy,260,2013-03-03 18:00:00
4:30 AM,77.0,75.2,94,29.56,6.2,Calm,Calm,-,N/A,,Mostly Cloudy,0,2013-03-03 18:30:00
5:00 AM,77.0,75.2,94,29.56,6.2,SSW,3.5,-,N/A,,Mostly Cloudy,200,2013-03-03 19:00:00
5:30 AM,77.0,75.2,94,29.56,6.2,Calm,Calm,-,N/A,,Mostly Cloudy,0,2013-03-03 19:30:00
6:00 AM,77,76,95,29.57,19,SW,3.5,,,,Partly Cloudy,220,2013-03-03 20:00:00
6:00 AM,77.0,75.2,94,29.56,6.2,SW,3.5,-,N/A,,Overcast,220,2013-03-03 20:00:00
6:30 AM,77.0,75.2,94,29.59,6.2,WNW,4.6,-,N/A,,Overcast,290,2013-03-03 20:30:00
7:00 AM,77,76,97,29.61,,Calm,Calm,,,,,,2013-03-03 21:00:00
7:00 AM,77.0,77.0,100,29.59,6.2,Calm,Calm,-,N/A,,Overcast,0,2013-03-03 21:00:00
7:30 AM,78.8,77.0,94,29.59,6.2,SW,1.2,-,N/A,,Overcast,230,2013-03-03 21:30:00
8:00 AM,78.8,77.0,94,29.59,6.2,Calm,Calm,-,N/A,,Overcast,0,2013-03-03 22:00:00
8:30 AM,80.6,77.0,89,29.62,6.2,SSE,5.8,-,N/A,,Mostly Cloudy,150,2013-03-03 22:30:00
9:00 AM,81,77,85,29.63,19,SSE,6.9,,,,Partly Cloudy,150,2013-03-03 23:00:00
9:00 AM,80.6,77.0,89,29.62,6.2,SSE,6.9,-,N/A,,Mostly Cloudy,150,2013-03-03 23:00:00
9:30 AM,82.4,78.8,89,29.62,6.2,SW,3.5,-,N/A,,Mostly Cloudy,220,2013-03-03 23:30:00
10:00 AM,85,78,74,29.64,,ESE,4.6,,,,,120,2013-03-04 00:00:00
10:00 AM,86.0,78.8,79,29.62,6.2,ESE,4.6,-,N/A,,Mostly Cloudy,120,2013-03-04 00:00:00
10:30 AM,87.8,77.0,70,29.62,6.2,SE,5.8,-,N/A,,Mostly Cloudy,130,2013-03-04 00:30:00
11:00 AM,87.8,75.2,66,29.59,6.2,East,5.8,-,N/A,,Mostly Cloudy,100,2013-03-04 01:00:00
11:30 AM,87.8,77.0,70,29.59,6.2,ESE,5.8,-,N/A,,Mostly Cloudy,110,2013-03-04 01:30:00
12:00 PM,87,77,65,29.59,19,NE,10.4,,,,Partly Cloudy,50,2013-03-04 02:00:00
12:00 PM,87.8,77.0,70,29.59,6.2,NE,10.4,-,N/A,,Mostly Cloudy,50,2013-03-04 02:00:00
12:30 PM,86.0,78.8,79,29.56,6.2,NE,9.2,-,N/A,,Mostly Cloudy,40,2013-03-04 02:30:00
1:00 PM,85,78,75,29.57,,NNE,10.4,,,,,30,2013-03-04 03:00:00
1:00 PM,86.0,78.8,79,29.56,6.2,NNE,10.4,-,N/A,,Mostly Cloudy,30,2013-03-04 03:00:00
1:30 PM,84.2,77.0,79,29.56,6.2,NNE,9.2,-,N/A,,Mostly Cloudy,30,2013-03-04 03:30:00
2:00 PM,82.4,78.8,89,29.53,6.2,NE,6.9,-,N/A,Rain,Light Rain,50,2013-03-04 04:00:00
2:30 PM,82.4,78.8,89,29.53,5.0,ESE,8.1,-,N/A,Rain,Light Rain,110,2013-03-04 04:30:00
3:00 PM,81,77,85,29.56,9,South,11.5,,,Rain,Light Rain Showers,190,2013-03-04 05:00:00
3:00 PM,80.6,77.0,89,29.53,6.2,South,11.5,-,N/A,,Mostly Cloudy,190,2013-03-04 05:00:00
3:30 PM,80.6,77.0,89,29.53,5.0,SW,5.8,-,N/A,Rain,Light Rain Showers,230,2013-03-04 05:30:00
4:00 PM,79,75,83,29.56,,West,5.8,,,,,270,2013-03-04 06:00:00
4:00 PM,78.8,75.2,89,29.53,5.6,West,5.8,-,N/A,Rain,Light Rain Showers,270,2013-03-04 06:00:00
4:30 PM,77.0,75.2,94,29.56,6.2,NW,8.1,-,N/A,Rain,Light Rain Showers,310,2013-03-04 06:30:00
5:00 PM,78.8,77.0,94,29.56,6.2,SW,4.6,-,N/A,Rain,Light Rain Showers,230,2013-03-04 07:00:00
5:30 PM,78.8,77.0,94,29.59,6.2,SSE,5.8,-,N/A,Rain,Light Rain,150,2013-03-04 07:30:00
6:00 PM,78,76,93,29.61,4,SSE,6.9,,,Rain,Light Rain,150,2013-03-04 08:00:00
6:00 PM,78.8,77.0,94,29.59,3.7,SSE,6.9,-,N/A,Rain,Light Rain,150,2013-03-04 08:00:00
6:30 PM,77.0,75.2,94,29.62,3.1,SSE,10.4,-,N/A,Rain,Light Rain,160,2013-03-04 08:30:00
7:00 PM,76,75,95,29.64,,SSW,3.5,,,,,200,2013-03-04 09:00:00
7:00 PM,77.0,75.2,94,29.62,6.2,SSW,3.5,-,N/A,Rain,Light Rain,200,2013-03-04 09:00:00
7:30 PM,77.0,75.2,94,29.62,3.7,WNW,6.9,-,N/A,Rain,Light Rain,290,2013-03-04 09:30:00
8:00 PM,77.0,75.2,94,29.65,3.7,West,4.6,-,N/A,Rain,Light Rain,280,2013-03-04 10:00:00
8:30 PM,75.2,75.2,100,29.65,5.6,West,3.5,-,N/A,Rain,Light Rain,260,2013-03-04 10:30:00
9:00 PM,76,74,94,29.64,6,South,4.6,,,Rain,Light Rain,170,2013-03-04 11:00:00
9:00 PM,75.2,75.2,100,29.62,6.2,South,4.6,-,N/A,Rain,Light Rain,170,2013-03-04 11:00:00
9:30 PM,75.2,75.2,100,29.62,6.2,SSE,3.5,-,N/A,Rain,Light Rain,160,2013-03-04 11:30:00
10:00 PM,76,75,96,29.63,,Calm,Calm,,,,,,2013-03-04 12:00:00
10:00 PM,77.0,75.2,94,29.62,6.2,Calm,Calm,-,N/A,,Mostly Cloudy,0,2013-03-04 12:00:00
10:30 PM,75.2,75.2,100,29.62,6.2,West,1.2,-,N/A,,Mostly Cloudy,270,2013-03-04 12:30:00
11:00 PM,77.0,75.2,94,29.62,6.2,WNW,5.8,-,N/A,,Mostly Cloudy,300,2013-03-04 13:00:00
11:30 PM,77.0,75.2,94,29.62,6.2,South,2.3,-,N/A,,Mostly Cloudy,180,2013-03-04 13:30:00